Regional Weather Roundup
Issued by NWS

Home | Current Version | Previous Version | Text Only | Print | Product List | Glossary On
Versions: 1 2 3 4 5 6 7 8 9 10 11 12 13 14 15 16 17 18 19 20 21 22 23 24 25 26 27 28 29 30 31 32 33 34 35 36 37 38 39 40 41 42 43 44 45 46 47 48 49 50
000
ASUS43 KMKX 242300
RWRWI

WISCONSIN REGIONAL WEATHER ROUNDUP
NATIONAL WEATHER SERVICE MILWAUKEE/SULLIVAN WI
500 PM CST FRI NOV 24 2017

NOTE: "FAIR" INDICATES FEW OR NO CLOUDS BELOW 12,000 FEET WITH NO
SIGNIFICANT WEATHER AND/OR OBSTRUCTIONS TO VISIBILITY.

WIZ001-002-006>008-014>016-023>028-250000-
NORTHWEST WISCONSIN

CITY           SKY/WX    TMP DP  RH WIND       PRES   REMARKS
SUPERIOR ARPT  CLOUDY    42  39  88 W12       29.44R
ASHLAND        PTCLDY    42  39  89 W8        29.41R
HAYWARD        CLOUDY    43  40  89 VRB6      29.43R
SIREN          MOCLDY    44  40  86 NW6       29.46R
CUMBERLAND     CLOUDY    45  41  87 NW9       29.45R
RICE LAKE      LGT RAIN  47  44  88 W9G16     29.46R
CHETEK         CLOUDY    48  45  89 NW7       29.44R
LADYSMITH      DRIZZLE   47  44  88 NW14G20   29.44R
EAU CLAIRE     NOT AVBL
MENOMONIE      LGT RAIN  50  46  87 W14       29.45R
NEW RICHMOND   CLOUDY    46  41  82 NW12      29.48R
OSCEOLA        MOCLDY    47  42  84 NW8       29.51R
$$

WIZ003>005-009-010-017-018-250000-
NORTH CENTRAL WISCONSIN

CITY           SKY/WX    TMP DP  RH WIND       PRES   REMARKS
MANITOWISH WTR LGT RAIN  44  44 100 NW15      29.36R
ARBOR VITAE    DRIZZLE   48  45  87 NW12G17   29.34R
WOODRUFF       DRIZZLE   48  45  87 NW12G17   29.34R
RHINELANDER    CLOUDY    50  40  68 W9        29.34R
EAGLE RIVER    CLOUDY    48  40  72 W16G22    29.32R
LAND O LAKES   LGT RAIN  46  43  90 W12G18    29.33R
PHILLIPS       LGT RAIN  45  44  97 NW8       29.38R
TOMAHAWK       CLOUDY    50  38  62 CALM      29.34S
MEDFORD        CLOUDY    49  38  65 W8        29.36S
MERRILL        CLOUDY    50  39  64 W3        29.34F
$$

WIZ029-030-035-036-043>047-250000-
CENTRAL WISCONSIN

CITY           SKY/WX    TMP DP  RH WIND       PRES   REMARKS
WAUSAU         MOCLDY    52  39  61 W7        29.34F
MOSINEE        CLOUDY    52  39  62 W7        29.36F
MARSHFIELD     LGT RAIN  52  40  63 W9        29.38R
STEVENS POINT  CLOUDY    55  38  52 W3        29.37S
WAUPACA        CLEAR     61  38  42 W14       29.36R
WAUTOMA        PTCLDY    57  39  51 W10       29.38R
WISC RAPIDS    CLOUDY    57  40  52 W7        29.39S
CAMP DOUGLAS   MOCLDY    57  40  53 W7        29.40R
$$

WIZ011>013-019>022-031-037>040-048>050-250000-
NORTHEAST WISCONSIN

CITY           SKY/WX    TMP DP  RH WIND       PRES   REMARKS
ANTIGO         CLOUDY    49  38  66 W9        29.35S
SHAWANO        CLOUDY    60  39  46 W7        29.35R
OCONTO         CLOUDY    53  38  57 NW8       29.32R
STURGEON BAY   CLOUDY    45  39  79 CALM      29.33R
GREEN BAY      CLOUDY    57  41  55 W10       29.34R
MANITOWOC      CLEAR     60  39  45 SW12G18   29.35R
APPLETON       MOCLDY    57  34  41 W16       29.34R
CLINTONVILLE   CLOUDY    59  37  44 W16       29.36R
OSHKOSH        CLEAR     56  39  53 CALM      29.36R
$$

WIZ032>034-041-042-053>061-250000-
SOUTHWEST WISCONSIN

CITY           SKY/WX    TMP DP  RH WIND       PRES   REMARKS
LA CROSSE      CLOUDY    55  42  61 W9        29.44R
SPARTA         MOCLDY    57  41  56 W3        29.42S
VIROQUA        CLOUDY    54  42  63 W6        29.44R
BOSCOBEL       PTCLDY    60  41  49 W8        29.45R
PRAIRIE DU CHI CLEAR     58  39  49 W8        29.45R
PLATTEVILLE    CLEAR     60  42  50 W14       29.44R
$$

WIZ056-057-062-063-064-067-068-250000-
SOUTH CENTRAL WISCONSIN

CITY           SKY/WX    TMP DP  RH WIND       PRES   REMARKS
REEDSBURG      CLEAR     58  40  50 W10       29.40R
BARABOO/DELLS  CLEAR     59  37  44 W10G18    29.40R
LONE ROCK      NOT AVBL
MINERAL POINT  CLEAR     61  39  44 W14       29.43R
MADISON        MOCLDY    59  39  47 SW5       29.39R
MIDDLETON      CLEAR     61  38  42 W5        29.39R
WATERTOWN      CLEAR     59  39  48 SW8       29.38R
MONROE         CLEAR     61  37  41 SW18      29.40R
JANESVILLE     CLEAR     61  37  41 S12       29.40R
$$

WIZ051-052-058>065-066-070>072-250000-
SOUTHEAST WISCONSIN

CITY           SKY/WX    TMP DP  RH WIND       PRES   REMARKS
MILWAUKEE      PTCLDY    61  39  44 SW14G23   29.40R
WAUKESHA       CLEAR     57  37  47 SW14G25   29.41R
MILWAUKEE/TIMM CLEAR     61  34  36 SW12      29.39R
RACINE         CLEAR     59  39  47 SW18G29   29.41R
BURLINGTON     CLEAR     60  44  56 SW18G24   29.41R
KENOSHA        CLEAR     60  38  43 SW17G31   29.41R
FOND DU LAC    CLEAR     57  37  47 SW8       29.37R
SHEBOYGAN      CLEAR     58  40  51 SW9       29.36R
WEST BEND      CLEAR     59  36  41 SW10G17   29.38R
JUNEAU         CLEAR     57  39  51 SW10      29.39R
$$

LSZ147-162-250000-
LAKE SUPERIOR

STATION/POSITION TIME  TEMP    WIND        PRES    WAVE
                       AIR SEA DIR/SP/G            HT/PER
                 (UTC) (F)     (DEG/KT/KT) (MB)    (FT/S)
DEVILS ISLAND    2200   42     240/ 18/ 20  994.2R
SAXON HARBOR     2230   45     210/  6/ 10  994.9R
$$

LMZ867-665-643>646-250000-
LAKE MICHIGAN

STATION/POSITION TIME  TEMP    WIND        PRES    WAVE
                       AIR SEA DIR/SP/G            HT/PER
                 (UTC) (F)     (DEG/KT/KT) (MB)    (FT/S)
N MID LAKE BUOY  2150   48 47  220/ 19/ 23  993.1R  11/ 8
NORTHPORT PIER   2240   47     170/  5/  8  992.9R
KEWAUNEE LAKESHO 2230   45     180/ 14/ 15  992.7R
SHEBOYGAN LAKESH 2200   50     200/ 13/ 14  993.4R
PORT WASHINGTON  2220   62     230/  8/ 21  995.3
MILWAUKEE LAKESH 2230   62     220/ 15/ 20   N/A
S MID LAKE BUOY  2150   52 47  170/ 23/ 27  996.6F   5/ 6
KENOSHA   LAKESH 2200   62     200/ 15/ 25  995.3
$$

TC  - TEMPERATURE IN CELSIUS
VSB - VISIBILITY IN STATUTE MILES
WCI - WIND CHILL INDEX
HX  - HEAT INDEX





USA.gov is the U.S. government's official web portal to all federal, state and local government web resources and services.